Tracking 35331 objects as of 16-Sep-2026
HD Live streaming from Space Station
objects crossing your sky now

SPACEBEENZ-14


SPACEBEENZ-14 is no longer on orbit


NORAD ID: 52018
Int'l Code: 2022-026L
Launch date: March 15, 2022
Source: New Zealand (NZ)
Launch site: Kodiak Island, Alaska (KODAK)
Decay date: 2023-11-21
Your satellite tracking list
Your tracking list is empty




NASA's NSSDC Master Catalog

Two Line Element Set (TLE):
1 52018U 22026L   23324.97708227  .05859790  25241-5  24509-2 0  9998
2 52018  97.4584 337.9925 0006816 191.9926 168.1203 16.23037414 94129
Source of the keplerian elements: AFSPC